Location: Castro Valley
(37.6940°N, 122.0850°W)
Time: 06:34:06
(UTC-07:00)

Amateur Radio Satellites - All Passes

Search period start: 17 September 2014 06:04
Search period end: 18 September 2014 06:04
Location: Castro Valley, 37.6940°N, 122.0850°W

Satellite Date Start Highest point End Downlink Frequencies (MHz)
Time Altitude Azimuth
RS-15 17 Sep 06:17:49 06:28:36 57° 308° (NW) 06:39:21 29.354 - 29.394 USB, Beacon 29.352 USB
STRAND 1 17 Sep 06:17:58 06:22:10 27° 67° (ENE) 06:26:24 ?
KITSAT 1 17 Sep 06:21:26 06:29:20 60° 247° (WSW) 06:37:12 435.175 FM
AO-7 17 Sep 06:27:08 06:35:06 54° 294° (WNW) 06:43:04 29.400 - 29.500 MHz
PANSAT 17 Sep 07:03:23 07:05:11 13° 195° (SSW) 07:07:00 not established
Hamsat 17 Sep 07:03:59 07:08:16 86° 102° (ESE) 07:12:28 145.90 MHz
SO-50 17 Sep 07:10:39 07:13:53 18° 45° (NE) 07:17:08 436.795 FM
JAS-2 17 Sep 07:16:35 07:22:32 81° 285° (WNW) 07:29:18 435.800 - 435.900 CW/SSB, 435.910 FM
SO-67 17 Sep 07:17:56 07:19:26 12° 93° (E) 07:20:55 435.3500 MHz FM
STRAND 1 17 Sep 07:56:41 08:01:13 32° 263° (W) 08:05:46 ?
MaSat-1 17 Sep 08:06:30 08:09:22 15° 101° (E) 08:12:14 437.345 MHz
AO-7 17 Sep 08:24:37 08:26:01 11° 314° (NW) 08:27:26 29.400 - 29.500 MHz
RS-15 17 Sep 08:36:47 08:44:06 20° 337° (NNW) 08:51:29 29.354 - 29.394 USB, Beacon 29.352 USB
SO-67 17 Sep 08:49:28 08:52:32 30° 287° (WNW) 08:55:35 435.3500 MHz FM
SO-50 17 Sep 08:50:05 08:54:51 63° 243° (WSW) 08:59:39 436.795 FM
UOSAT-12 17 Sep 09:03:06 09:06:25 19° 46° (NE) 09:09:42 437.025 FM, 437.400 FM
ISS 17 Sep 09:04:18 09:06:01 13° 20° (NNE) 09:07:43 145.800 FM
JAS-2 17 Sep 09:05:06 09:06:55 11° 299° (WNW) 09:08:47 435.800 - 435.900 CW/SSB, 435.910 FM
MaSat-1 17 Sep 09:40:42 09:45:39 60° 296° (WNW) 09:50:37 437.345 MHz
HO-68 17 Sep 10:03:45 10:10:54 64° 103° (ESE) 10:18:00 435.675 MHz FM
Oscar 11 17 Sep 10:04:32 10:07:52 21° 95° (E) 10:11:09 145.825 FM, Beacon 2401.500 USB
UKube-1 17 Sep 10:18:02 10:22:10 41° 99° (E) 10:26:17 145.840 MHz, 145.915 MHz
ISS 17 Sep 10:39:56 10:43:16 67° 38° (NE) 10:46:34 145.800 FM
UOSAT-12 17 Sep 10:42:18 10:46:55 55° 243° (WSW) 10:51:26 437.025 FM, 437.400 FM
RS-15 17 Sep 10:56:18 11:02:46 17° 15° (NNE) 11:09:17 29.354 - 29.394 USB, Beacon 29.352 USB
FUNcube-1 17 Sep 11:22:42 11:27:19 67° 101° (E) 11:31:52 145.950 - 145.970 MHz USB
Oscar 11 17 Sep 11:40:15 11:44:02 30° 290° (WNW) 11:47:48 145.825 FM, Beacon 2401.500 USB
PCSat 17 Sep 11:47:11 11:50:11 15° 104° (ESE) 11:53:12 145.825 MHz
HO-68 17 Sep 11:52:35 11:58:00 24° 300° (WNW) 12:03:25 435.675 MHz FM
UKube-1 17 Sep 11:55:18 11:58:01 16° 294° (WNW) 12:00:43 145.840 MHz, 145.915 MHz
ISS 17 Sep 12:18:37 12:19:33 11° 233° (SW) 12:20:29 145.800 FM
JAS-1B 17 Sep 12:26:41 12:29:50 13° 57° (ENE) 12:32:49 435.800 - 435.900 CW/SSB
Sapphire 17 Sep 13:00:19 13:05:40 69° 114° (ESE) 13:11:04 437.095 MHz 1200 baud AX-25 AFSK
Oscar 19 17 Sep 13:00:51 13:05:04 26° 67° (ENE) 13:09:18 437.125 CW, 437.150 USB
FUNcube-1 17 Sep 13:01:24 13:03:05 12° 297° (WNW) 13:04:46 145.950 - 145.970 MHz USB
RS-15 17 Sep 13:08:52 13:19:17 43° 47° (NE) 13:30:00 29.354 - 29.394 USB, Beacon 29.352 USB
AO-27 17 Sep 13:14:23 13:17:14 15° 62° (ENE) 13:20:05 436.795 MHz FM
PCSat 17 Sep 13:27:38 13:32:59 65° 299° (WNW) 13:38:24 145.825 MHz
Oscar 16 17 Sep 13:38:10 13:43:16 61° 73° (ENE) 13:48:24 437.025 USB, Beacon 2401.1428
Gurwin Techsat 1B 17 Sep 13:53:12 13:56:26 17° 63° (ENE) 13:59:41 435.225 FM
JAS-1B 17 Sep 14:10:34 14:19:25 69° 73° (ENE) 14:26:52 435.800 - 435.900 CW/SSB
AO-Echo 17 Sep 14:10:41 14:15:22 57° 74° (ENE) 14:19:59 ?
ITAMSAT 1 17 Sep 14:16:44 14:21:47 59° 73° (ENE) 14:26:52 435.822 SSB
Uribyol 2 17 Sep 14:21:28 14:26:35 70° 74° (ENE) 14:31:44 436.500 FM
TMSAT-1 17 Sep 14:30:27 14:34:48 27° 67° (ENE) 14:39:11 436.925 FM
Oscar 19 17 Sep 14:39:29 14:44:12 35° 263° (W) 14:48:58 437.125 CW, 437.150 USB
Sapphire 17 Sep 14:45:59 14:49:36 18° 313° (NW) 14:53:15 437.095 MHz 1200 baud AX-25 AFSK
AO-27 17 Sep 14:51:04 14:56:10 64° 258° (WSW) 15:01:20 436.795 MHz FM
PCSat 17 Sep 15:16:27 15:17:29 11° 319° (NW) 15:18:31 145.825 MHz
Oscar 16 17 Sep 15:20:16 15:23:00 14° 269° (W) 15:25:44 437.025 USB, Beacon 2401.1428
RS-15 17 Sep 15:21:11 15:31:57 57° 248° (WSW) 15:43:12 29.354 - 29.394 USB, Beacon 29.352 USB
Uosat F 17 Sep 15:21:16 15:23:39 14° 62° (ENE) 15:26:03 435.120 FM
Gurwin Techsat 1B 17 Sep 15:30:39 15:35:52 60° 259° (W) 15:41:08 435.225 FM
AO-7 17 Sep 15:31:58 15:39:23 38° 62° (ENE) 15:46:47 29.400 - 29.500 MHz
AO-Echo 17 Sep 15:52:18 15:54:27 13° 268° (W) 15:56:36 ?
ITAMSAT 1 17 Sep 15:58:47 16:01:37 15° 268° (W) 16:04:29 435.822 SSB
JAS-1B 17 Sep 16:03:25 16:10:10 24° 265° (W) 16:16:13 435.800 - 435.900 CW/SSB
Uribyol 2 17 Sep 16:04:30 16:06:31 12° 269° (W) 16:08:33 436.500 FM
TMSAT-1 17 Sep 16:09:46 16:14:33 35° 263° (W) 16:19:22 436.925 FM
Uosat F 17 Sep 16:56:53 17:01:50 68° 258° (WSW) 17:06:50 435.120 FM
AO-7 17 Sep 17:24:03 17:31:56 47° 259° (W) 17:39:52 29.400 - 29.500 MHz
JAS-2 17 Sep 17:28:34 17:33:12 31° 69° (ENE) 17:37:42 435.800 - 435.900 CW/SSB, 435.910 FM
OPAL 17 Sep 17:52:16 17:57:26 69° 104° (ESE) 18:02:30 ?
Hamsat 17 Sep 17:55:10 17:59:20 47° 74° (ENE) 18:03:32 145.90 MHz
Saudisat 1A 17 Sep 17:56:51 18:01:12 68° 118° (ESE) 18:05:36 436.775 MHz
MaSat-1 17 Sep 18:00:43 18:03:06 16° 52° (NE) 18:05:17 437.345 MHz
KITSAT 1 17 Sep 18:54:01 19:00:12 25° 104° (ESE) 19:06:23 435.175 FM
JAS-2 17 Sep 19:13:50 19:18:19 27° 264° (W) 19:22:41 435.800 - 435.900 CW/SSB, 435.910 FM
SO-67 17 Sep 19:19:59 19:23:22 57° 76° (ENE) 19:26:47 435.3500 MHz FM
OPAL 17 Sep 19:32:59 19:35:41 15° 300° (WNW) 19:38:22 ?
Hamsat 17 Sep 19:33:23 19:35:32 13° 268° (W) 19:37:41 145.90 MHz
MaSat-1 17 Sep 19:36:44 19:40:02 30° 254° (WSW) 19:42:53 437.345 MHz
Saudisat 1A 17 Sep 19:38:48 19:41:14 14° 316° (NW) 19:43:41 436.775 MHz
STRAND 1 17 Sep 20:08:25 20:13:35 84° 284° (WNW) 20:18:43 ?
HO-68 17 Sep 20:30:27 20:36:57 40° 66° (ENE) 20:43:28 435.675 MHz FM
PCSat 17 Sep 20:36:58 20:38:22 11° 41° (NE) 20:39:46 145.825 MHz
KITSAT 1 17 Sep 20:46:52 20:54:53 67° 302° (WNW) 21:02:58 435.175 FM
Oscar 11 17 Sep 20:58:55 21:01:16 14° 65° (ENE) 21:03:37 145.825 FM, Beacon 2401.500 USB
UKube-1 17 Sep 21:12:00 21:15:44 29° 70° (ENE) 21:19:29 145.840 MHz, 145.915 MHz
Sapphire 17 Sep 21:50:22 21:55:24 37° 56° (NE) 22:00:23 437.095 MHz 1200 baud AX-25 AFSK
FUNcube-1 17 Sep 22:17:16 22:21:22 41° 72° (ENE) 22:25:35 145.950 - 145.970 MHz USB
PCSat 17 Sep 22:17:24 22:22:49 67° 61° (ENE) 22:28:12 145.825 MHz
HO-68 17 Sep 22:18:09 22:24:36 37° 262° (W) 22:31:06 435.675 MHz FM
Oscar 11 17 Sep 22:32:49 22:37:01 48° 261° (W) 22:41:16 145.825 FM, Beacon 2401.500 USB
KITSAT 1 17 Sep 22:46:58 22:51:57 17° 324° (NW) 22:56:57 435.175 FM
UKube-1 17 Sep 22:48:33 22:51:55 22° 264° (W) 22:55:17 145.840 MHz, 145.915 MHz
AO-40 17 Sep 22:55:56 00:15:07 14° 109° (ESE) 01:06:17 Beacon 2401.320
SO-50 17 Sep 23:03:10 23:07:35 67° 118° (ESE) 23:12:07 436.795 FM
Sapphire 17 Sep 23:34:04 23:38:39 28° 252° (WSW) 23:43:12 437.095 MHz 1200 baud AX-25 AFSK
FUNcube-1 17 Sep 23:55:18 23:57:57 16° 268° (W) 00:00:39 145.950 - 145.970 MHz USB
PCSat 18 Sep 00:02:45 00:05:36 15° 257° (WSW) 00:08:26 145.825 MHz
SO-50 18 Sep 00:45:59 00:48:38 15° 316° (NW) 00:51:19 436.795 FM
UOSAT-12 18 Sep 00:51:18 00:55:52 70° 118° (ESE) 01:00:33 437.025 FM, 437.400 FM
Oscar 16 18 Sep 01:52:28 01:56:42 25° 95° (E) 02:00:53 437.025 USB, Beacon 2401.1428
JAS-1B 18 Sep 02:01:00 02:03:47 14° 91° (E) 02:06:33 435.800 - 435.900 CW/SSB
AO-Echo 18 Sep 02:20:09 02:23:48 21° 95° (E) 02:27:31 ?
Saudisat 1A 18 Sep 02:25:32 02:29:31 32° 52° (NE) 02:33:28 436.775 MHz
ITAMSAT 1 18 Sep 02:32:07 02:36:19 24° 95° (E) 02:40:31 435.822 SSB
UOSAT-12 18 Sep 02:33:43 02:36:31 16° 316° (NW) 02:39:21 437.025 FM, 437.400 FM
Uribyol 2 18 Sep 02:36:34 02:41:05 29° 96° (E) 02:45:33 436.500 FM
KITSAT 1 18 Sep 02:49:08 02:52:08 12° 28° (NNE) 02:55:07 435.175 FM
TMSAT-1 18 Sep 02:50:02 02:51:46 12° 90° (E) 02:53:29 436.925 FM
Oscar 19 18 Sep 02:52:28 02:57:40 86° 284° (WNW) 03:02:48 437.125 CW, 437.150 USB
AO-27 18 Sep 03:05:58 03:11:05 54° 101° (E) 03:16:10 436.795 MHz FM
PANSAT 18 Sep 03:18:15 03:20:51 17° 171° (S) 03:23:26 not established
ISS 18 Sep 03:20:49 03:24:06 62° 138° (SE) 03:27:24 145.800 FM
OPAL 18 Sep 03:30:12 03:32:15 12° 58° (ENE) 03:34:18 ?
Oscar 16 18 Sep 03:31:23 03:36:04 35° 291° (WNW) 03:40:43 437.025 USB, Beacon 2401.1428
RS-15 18 Sep 03:32:21 03:41:08 28° 104° (ESE) 03:49:44 29.354 - 29.394 USB, Beacon 29.352 USB
AO-7 18 Sep 03:40:53 03:41:18 10° 88° (E) 03:41:42 29.400 - 29.500 MHz
Gurwin Techsat 1B 18 Sep 03:48:42 03:54:00 65° 101° (ESE) 03:59:15 435.225 FM
JAS-1B 18 Sep 03:49:21 03:55:03 62° 288° (WNW) 04:00:40 435.800 - 435.900 CW/SSB
AO-Echo 18 Sep 03:58:12 04:02:39 38° 289° (WNW) 04:07:12 ?
Saudisat 1A 18 Sep 04:05:22 04:08:56 24° 248° (WSW) 04:12:29 436.775 MHz
ITAMSAT 1 18 Sep 04:11:06 04:15:52 37° 290° (WNW) 04:20:36 435.822 SSB
Uribyol 2 18 Sep 04:15:55 04:20:29 32° 292° (WNW) 04:25:03 436.500 FM
TMSAT-1 18 Sep 04:26:53 04:32:12 76° 285° (WNW) 04:37:29 436.925 FM
KITSAT 1 18 Sep 04:42:16 04:49:57 45° 53° (NE) 04:57:35 435.175 FM
AO-27 18 Sep 04:46:43 04:50:08 18° 296° (WNW) 04:53:33 436.795 MHz FM
PANSAT 18 Sep 04:57:35 05:00:26 20° 184° (S) 05:03:18 not established
ISS 18 Sep 04:58:40 05:01:05 18° 334° (NNW) 05:03:30 145.800 FM
OPAL 18 Sep 05:05:13 05:10:23 83° 255° (WSW) 05:15:37 ?
Uosat F 18 Sep 05:06:34 05:11:21 43° 99° (E) 05:16:06 435.120 FM
AO-7 18 Sep 05:27:06 05:35:22 69° 105° (ESE) 05:43:36 29.400 - 29.500 MHz
Gurwin Techsat 1B 18 Sep 05:30:22 05:33:23 16° 297° (WNW) 05:36:24 435.225 FM
RS-15 18 Sep 05:41:23 05:52:26 72° 303° (WNW) 06:03:22 29.354 - 29.394 USB, Beacon 29.352 USB
STRAND 1 18 Sep 05:46:43 05:49:03 13° 62° (ENE) 05:51:24 ?
